SITRO-AIS 7 (FARTUSHNIY)

Last updated on Sun Dec 14 2025 00:03:50 GMT+0000 (Coordinated Universal Time)

1 57194U 23091AE 25347.26129046 .00011255 00000+0 48336-3 0 9992 2 57194 97.5349 44.5443 0013638 45.6440 314.5911 15.22775999135956
UTC large
Height (km)
Speed (km/s)
/
Latitude / Longitude
Inclination (degrees)
Orbital Period (minutes)
Azimuth
Elevation
Range (km)
Doppler Factor

Next 0 passes for location: London (51.5072 / 0.1276)

Sorry there are no passes over London.